This is the latest recevied weather packets stored in our database for station/object JE0GNV-13. If no packets are shown the sender has not sent any weather packets the latest 1 day(s).
| Time | Temp. | Humidity | Pressure | Rain* | Wind** | Luminosity | Snow |
|---|---|---|---|---|---|---|---|
| 1777991402 | 8.89° C | 80% | 1020.2 hPa | 0 mm | 0 m/s | - | - |
| 1777990802 | 8.33° C | 81% | 1020.3 hPa | 0 mm | 0 m/s | - | - |
| 1777990202 | 7.78° C | 84% | 1020.3 hPa | 0 mm | 0 m/s | - | - |
| 1777989602 | 7.78° C | 86% | 1020.1 hPa | 0 mm | 0 m/s | - | - |
| 1777989002 | 7.78° C | 85% | 1020 hPa | 0 mm | 0 m/s | - | - |
| 1777988400 | 7.78° C | 84% | 1020 hPa | 0 mm | 0 m/s | - | - |
| 1777987801 | 8.33° C | 83% | 1019.8 hPa | 0 mm | 0 m/s | - | - |
| 1777987201 | 8.89° C | 82% | 1019.9 hPa | 0 mm | 0 m/s | - | - |
| 1777986601 | 8.89° C | 80% | 1019.9 hPa | 0 mm | 0 m/s | - | - |
| 1777986001 | 9.44° C | 78% | 1019.8 hPa | 0 mm | 0 m/s | - | - |
| 1777985401 | 10° C | 76% | 1019.8 hPa | 0 mm | 0 m/s | - | - |
| 1777984801 | 10.56° C | 75% | 1019.8 hPa | 0 mm | 0 m/s | - | - |
| 1777984201 | 10.56° C | 73% | 1019.7 hPa | 0 mm | 0 m/s | - | - |
| 1777983601 | 10.56° C | 72% | 1019.4 hPa | 0 mm | 0 m/s | - | - |
| 1777983001 | 11.11° C | 71% | 1019.4 hPa | 0 mm | 0 m/s | - | - |
| 1777982401 | 11.11° C | 70% | 1019.2 hPa | 0 mm | 0 m/s | - | - |
| 1777981801 | 11.67° C | 70% | 1019 hPa | 0 mm | 0 m/s | - | - |
| 1777981201 | 11.67° C | 70% | 1019 hPa | 0 mm | 0 m/s | - | - |
| 1777980601 | 11.67° C | 70% | 1018.8 hPa | 0 mm | 0 m/s | - | - |
| 1777980001 | 12.22° C | 69% | 1018.6 hPa | 0 mm | 0 m/s | - | - |
| 1777979402 | 12.22° C | 69% | 1018.6 hPa | 0 mm | 0 m/s | - | - |
| 1777978802 | 12.78° C | 70% | 1018.2 hPa | 0 mm | 0 m/s | - | - |
| 1777978200 | 12.78° C | 69% | 1018 hPa | 0 mm | 0 m/s | - | - |
| 1777977601 | 13.33° C | 69% | 1017.9 hPa | 0 mm | 0 m/s | - | - |
| 1777977001 | 13.33° C | 68% | 1017.7 hPa | 0 mm | 0 m/s | - | - |
* Rain latest hour (hover to see other rain measurements)
** Current wind speed in m/s (hover to see current wind gust speed)